TimeEST,TemperatureF,Dew PointF,Humidity,Sea Level PressureIn,VisibilityMPH,Wind Direction,Wind SpeedMPH,Gust SpeedMPH,PrecipitationIn,Events,Conditions,WindDirDegrees,DateUTC
12:15 AM,32.4,32.0,99,30.34,1.2,Calm,Calm,-,N/A,,Overcast,0,2013-12-08 05:15:00
12:35 AM,32.4,32.0,99,30.33,0.5,ESE,4.6,-,N/A,Fog,Fog,120,2013-12-08 05:35:00
12:55 AM,32.2,32.0,99,30.33,1.8,SE,3.5,-,N/A,,Overcast,130,2013-12-08 05:55:00
1:15 AM,32.0,31.6,99,30.33,2.0,SE,5.8,-,N/A,,Overcast,140,2013-12-08 06:15:00
1:35 AM,32.0,31.6,99,30.33,1.8,SSE,3.5,-,N/A,,Overcast,150,2013-12-08 06:35:00
1:55 AM,32.0,31.6,99,30.32,1.5,SE,3.5,-,N/A,,Overcast,130,2013-12-08 06:55:00
2:15 AM,32.0,31.8,99,30.32,1.8,Calm,Calm,-,N/A,,Overcast,0,2013-12-08 07:15:00
2:35 AM,32.0,31.6,99,30.32,2.0,Calm,Calm,-,N/A,,Overcast,0,2013-12-08 07:35:00
2:55 AM,32.0,31.8,99,30.31,0.5,Calm,Calm,-,N/A,Fog,Fog,0,2013-12-08 07:55:00
3:15 AM,32.0,31.6,99,30.32,1.2,Calm,Calm,-,N/A,Snow,Light Snow,0,2013-12-08 08:15:00
3:35 AM,32.0,31.6,99,30.32,1.5,Calm,Calm,-,N/A,,Overcast,0,2013-12-08 08:35:00
3:55 AM,32.0,31.6,99,30.32,2.0,Calm,Calm,-,N/A,,Overcast,0,2013-12-08 08:55:00
4:15 AM,32.0,31.8,99,30.31,1.2,SSE,3.5,-,N/A,,Overcast,150,2013-12-08 09:15:00
4:35 AM,32.0,31.6,99,30.30,0.8,Calm,Calm,-,N/A,,Overcast,0,2013-12-08 09:35:00
4:55 AM,32.0,31.8,99,30.31,1.5,Calm,Calm,-,N/A,,Overcast,0,2013-12-08 09:55:00
5:15 AM,32.0,31.6,99,30.30,1.2,Calm,Calm,-,0.02,Snow,Light Snow,0,2013-12-08 10:15:00
5:35 AM,32.0,31.6,99,30.29,0.5,SE,3.5,-,0.08,Snow,Light Snow,140,2013-12-08 10:35:00
5:55 AM,32.0,31.5,98,30.28,0.5,SE,3.5,-,0.15,Snow,Light Snow,140,2013-12-08 10:55:00
6:15 AM,31.6,31.1,98,30.30,3.0,SSE,4.6,-,0.01,,Overcast,150,2013-12-08 11:15:00
6:35 AM,30.9,30.4,98,30.31,1.8,SE,4.6,-,0.01,,Overcast,140,2013-12-08 11:35:00
6:55 AM,30.0,29.3,97,30.30,3.0,SSE,3.5,-,0.01,,Overcast,150,2013-12-08 11:55:00
7:15 AM,29.3,28.8,98,30.30,7.0,Calm,Calm,-,N/A,,Overcast,0,2013-12-08 12:15:00
7:35 AM,29.3,28.8,98,30.30,5.0,SSE,4.6,-,N/A,,Overcast,160,2013-12-08 12:35:00
7:55 AM,29.1,28.4,97,30.29,2.0,Calm,Calm,-,N/A,,Overcast,0,2013-12-08 12:55:00
8:15 AM,28.9,28.4,98,30.30,4.0,SSE,3.5,-,N/A,,Overcast,150,2013-12-08 13:15:00
8:35 AM,29.1,28.4,97,30.30,2.0,SSE,3.5,-,N/A,,Overcast,150,2013-12-08 13:35:00
8:55 AM,28.8,28.4,99,30.28,0.2,Calm,Calm,-,N/A,Fog,Light Freezing Fog,0,2013-12-08 13:55:00
9:15 AM,28.9,28.4,98,30.30,0.5,ESE,5.8,-,N/A,Fog,Light Freezing Fog,120,2013-12-08 14:15:00
9:35 AM,28.6,28.2,99,30.31,0.8,Calm,Calm,-,N/A,,Overcast,0,2013-12-08 14:35:00
9:55 AM,28.6,28.2,99,30.31,0.5,Calm,Calm,-,N/A,,Overcast,0,2013-12-08 14:55:00
10:15 AM,28.2,27.5,97,30.31,1.2,SSE,4.6,-,N/A,Snow,Light Snow,150,2013-12-08 15:15:00
10:35 AM,28.4,27.9,98,30.31,1.5,SSE,3.5,-,N/A,Snow,Light Snow,150,2013-12-08 15:35:00
10:55 AM,28.4,27.9,98,30.31,1.5,SE,3.5,-,N/A,Snow,Light Snow,130,2013-12-08 15:55:00
11:15 AM,28.6,28.0,98,30.29,1.2,SE,3.5,-,N/A,Snow,Light Snow,130,2013-12-08 16:15:00
11:35 AM,28.8,28.2,98,30.29,1.2,Calm,Calm,-,N/A,,Overcast,0,2013-12-08 16:35:00
11:55 AM,28.2,27.7,98,30.29,0.8,SSE,4.6,-,N/A,,Overcast,150,2013-12-08 16:55:00
12:15 PM,28.4,27.7,97,30.27,0.2,SE,4.6,-,N/A,Fog,Light Freezing Fog,130,2013-12-08 17:15:00
12:35 PM,28.0,27.5,98,30.27,1.0,SSE,4.6,-,N/A,,Overcast,150,2013-12-08 17:35:00
12:55 PM,28.4,28.0,99,30.27,3.0,Calm,Calm,-,N/A,,Overcast,0,2013-12-08 17:55:00
1:15 PM,28.6,28.0,98,30.25,2.0,SE,4.6,-,N/A,,Overcast,140,2013-12-08 18:15:00
1:35 PM,28.4,27.9,98,30.24,2.0,SE,3.5,-,N/A,,Overcast,140,2013-12-08 18:35:00
1:55 PM,29.1,28.4,97,30.23,0.5,SE,3.5,-,N/A,Fog,Light Freezing Fog,140,2013-12-08 18:55:00
2:15 PM,29.3,28.8,98,30.23,2.0,Calm,Calm,-,N/A,,Overcast,0,2013-12-08 19:15:00
2:35 PM,29.1,28.4,97,30.22,0.8,SE,4.6,-,N/A,,Overcast,140,2013-12-08 19:35:00
2:55 PM,28.8,28.2,98,30.22,0.2,SE,4.6,-,N/A,Fog,Light Freezing Fog,140,2013-12-08 19:55:00
3:15 PM,29.3,28.8,98,30.22,0.2,SE,3.5,-,N/A,Fog,Light Freezing Fog,140,2013-12-08 20:15:00
3:35 PM,28.8,28.2,98,30.21,0.2,SE,4.6,-,N/A,Fog,Light Freezing Fog,140,2013-12-08 20:35:00
3:55 PM,28.4,27.9,98,30.21,0.2,SE,3.5,-,N/A,Fog,Light Freezing Fog,130,2013-12-08 20:55:00
4:15 PM,28.8,28.2,98,30.22,0.2,Calm,Calm,-,N/A,Fog,Light Freezing Fog,0,2013-12-08 21:15:00
4:35 PM,28.4,27.9,98,30.22,0.2,SSE,3.5,-,N/A,Fog,Light Freezing Fog,150,2013-12-08 21:35:00
4:55 PM,28.2,27.7,98,30.22,0.2,Calm,Calm,-,N/A,Fog,Light Freezing Fog,0,2013-12-08 21:55:00
5:20 PM,28.0,27.5,98,30.21,0.5,Calm,Calm,-,N/A,Fog,Light Freezing Fog,0,2013-12-08 22:20:00
5:35 PM,28.0,27.3,97,30.21,0.8,SSE,3.5,-,N/A,,Overcast,160,2013-12-08 22:35:00
5:55 PM,28.0,27.3,97,30.20,0.5,Calm,Calm,-,N/A,Snow,Light Snow,0,2013-12-08 22:55:00
6:15 PM,28.0,27.5,98,30.21,0.5,SE,3.5,-,N/A,,Overcast,140,2013-12-08 23:15:00
6:35 PM,27.9,27.3,98,30.23,0.5,SE,3.5,-,N/A,,Overcast,140,2013-12-08 23:35:00
6:55 PM,28.2,27.5,97,30.21,0.5,SSE,3.5,-,N/A,,Overcast,150,2013-12-08 23:55:00
7:15 PM,28.6,28.0,98,30.21,0.8,ESE,3.5,-,0.04,Snow,Light Snow,120,2013-12-09 00:15:00
7:35 PM,28.9,28.4,98,30.20,5.0,Calm,Calm,-,0.06,,Overcast,0,2013-12-09 00:35:00
7:55 PM,29.8,29.3,98,30.21,10.0,Calm,Calm,-,0.06,,Overcast,0,2013-12-09 00:55:00
8:15 PM,29.8,29.3,98,30.20,4.0,Calm,Calm,-,N/A,,Overcast,0,2013-12-09 01:15:00
8:35 PM,29.3,28.9,99,30.21,5.0,Calm,Calm,-,N/A,,Overcast,0,2013-12-09 01:35:00
8:55 PM,29.5,28.9,98,30.20,10.0,Calm,Calm,-,N/A,,Overcast,0,2013-12-09 01:55:00
9:15 PM,29.1,28.6,98,30.19,10.0,Calm,Calm,-,N/A,,Overcast,0,2013-12-09 02:15:00
9:35 PM,29.1,28.4,97,30.20,10.0,Calm,Calm,-,N/A,,Overcast,0,2013-12-09 02:35:00
9:55 PM,29.3,28.6,97,30.20,3.0,SE,3.5,-,N/A,,Overcast,140,2013-12-09 02:55:00
10:15 PM,28.6,28.2,99,30.19,1.0,Calm,Calm,-,N/A,,Overcast,0,2013-12-09 03:15:00
10:35 PM,28.8,28.2,98,30.18,1.0,Calm,Calm,-,N/A,,Overcast,0,2013-12-09 03:35:00
10:55 PM,28.9,28.4,98,30.18,0.5,Calm,Calm,-,N/A,,Overcast,0,2013-12-09 03:55:00
11:15 PM,29.5,28.9,98,30.16,0.5,SE,3.5,-,N/A,,Overcast,130,2013-12-09 04:15:00
11:35 PM,29.7,29.1,98,30.15,0.5,Calm,Calm,-,N/A,,Overcast,0,2013-12-09 04:35:00
11:55 PM,30.0,29.3,97,30.15,1.0,SSE,3.5,-,N/A,,Overcast,150,2013-12-09 04:55:00